Time,TemperatureF,DewpointF,PressureIn,WindDirection,WindDirectionDegrees,WindSpeedMPH,WindSpeedGustMPH,Humidity,HourlyPrecipIn,Conditions,Clouds,dailyrainin,SoftwareType,DateUTC
2013-07-01 00:01:00,63.0,56.0,29.91,NNE,24,2.0,7.0,77,0.00,,,0.15,,2013-07-01 05:01:00,
2013-07-01 00:11:00,63.0,56.0,29.91,NNE,24,2.0,7.0,77,0.00,,,0.15,,2013-07-01 05:11:00,
2013-07-01 00:22:00,63.0,56.0,29.91,NNE,24,2.0,6.0,78,0.00,,,0.15,,2013-07-01 05:22:00,
2013-07-01 00:33:00,62.0,55.0,29.91,NNE,14,3.0,6.0,79,0.00,,,0.15,,2013-07-01 05:33:00,
2013-07-01 00:42:00,62.0,55.0,29.91,NNE,14,3.0,6.0,79,0.00,,,0.15,,2013-07-01 05:42:00,
2013-07-01 00:52:00,62.0,56.0,29.91,North,360,1.0,4.0,80,0.00,,,0.15,,2013-07-01 05:52:00,
2013-07-01 01:02:00,62.0,56.0,29.91,NNE,24,3.0,6.0,80,0.00,,,0.15,,2013-07-01 06:02:00,
2013-07-01 01:12:00,62.0,56.0,29.91,NNE,24,3.0,6.0,80,0.00,,,0.15,,2013-07-01 06:12:00,
2013-07-01 01:24:00,62.0,56.0,29.91,NNE,22,2.0,5.0,80,0.00,,,0.15,,2013-07-01 06:24:00,
2013-07-01 01:33:00,62.0,56.0,29.92,NE,34,1.0,5.0,81,0.00,,,0.15,,2013-07-01 06:33:00,
2013-07-01 01:43:00,62.0,56.0,29.92,NE,34,1.0,5.0,81,0.00,,,0.15,,2013-07-01 06:43:00,
2013-07-01 01:53:00,62.0,56.0,29.92,NE,34,1.0,5.0,81,0.00,,,0.15,,2013-07-01 06:53:00,
2013-07-01 02:01:00,62.0,57.0,29.92,NNE,17,1.0,4.0,83,0.00,,,0.15,,2013-07-01 07:01:00,
2013-07-01 02:11:00,62.0,57.0,29.92,NNE,17,1.0,4.0,83,0.00,,,0.15,,2013-07-01 07:11:00,
2013-07-01 02:22:00,62.0,57.0,29.91,NNE,22,2.0,4.0,84,0.00,,,0.15,,2013-07-01 07:22:00,
2013-07-01 02:33:00,62.0,57.0,29.91,NNE,19,1.0,5.0,84,0.00,,,0.15,,2013-07-01 07:33:00,
2013-07-01 02:43:00,62.0,57.0,29.91,NNE,19,1.0,5.0,84,0.00,,,0.15,,2013-07-01 07:43:00,
2013-07-01 02:53:00,62.0,57.0,29.91,NNE,24,2.0,4.0,85,0.00,,,0.15,,2013-07-01 07:53:00,
2013-07-01 03:01:00,62.0,58.0,29.91,NNE,26,1.0,4.0,86,0.00,,,0.15,,2013-07-01 08:01:00,
2013-07-01 03:11:00,62.0,58.0,29.91,NNE,26,1.0,4.0,86,0.00,,,0.15,,2013-07-01 08:11:00,
2013-07-01 03:22:00,62.0,58.0,29.91,NNE,24,2.0,4.0,86,0.00,,,0.15,,2013-07-01 08:22:00,
2013-07-01 03:33:00,62.0,58.0,29.91,NNE,27,1.0,4.0,87,0.00,,,0.15,,2013-07-01 08:33:00,
2013-07-01 03:42:00,62.0,58.0,29.91,NNE,27,1.0,4.0,87,0.00,,,0.15,,2013-07-01 08:42:00,
2013-07-01 03:52:00,62.0,58.0,29.91,NNE,13,2.0,4.0,87,0.00,,,0.15,,2013-07-01 08:52:00,
2013-07-01 04:02:00,62.0,58.0,29.91,NNE,16,2.0,5.0,88,0.00,,,0.15,,2013-07-01 09:02:00,
2013-07-01 04:11:00,62.0,58.0,29.91,NNE,16,2.0,5.0,88,0.00,,,0.15,,2013-07-01 09:11:00,
2013-07-01 04:22:00,62.0,58.0,29.91,NNE,25,2.0,6.0,87,0.00,,,0.15,,2013-07-01 09:22:00,
2013-07-01 04:34:00,62.0,58.0,29.91,NNE,26,1.0,4.0,87,0.00,,,0.15,,2013-07-01 09:34:00,
2013-07-01 04:43:00,62.0,58.0,29.91,NNE,26,1.0,4.0,87,0.00,,,0.15,,2013-07-01 09:43:00,
2013-07-01 04:53:00,62.0,58.0,29.91,NNE,12,2.0,5.0,87,0.00,,,0.15,,2013-07-01 09:53:00,
2013-07-01 05:03:00,62.0,58.0,29.92,NNE,17,2.0,5.0,87,0.00,,,0.15,,2013-07-01 10:03:00,
2013-07-01 05:11:00,62.0,58.0,29.92,NNE,17,2.0,5.0,87,0.00,,,0.15,,2013-07-01 10:11:00,
2013-07-01 05:22:00,62.0,58.0,29.92,NNE,32,2.0,4.0,87,0.00,,,0.15,,2013-07-01 10:22:00,
2013-07-01 05:33:00,62.0,58.0,29.92,NNE,19,1.0,4.0,88,0.00,,,0.15,,2013-07-01 10:33:00,
2013-07-01 05:42:00,62.0,58.0,29.92,NNE,19,1.0,4.0,88,0.00,,,0.15,,2013-07-01 10:42:00,
2013-07-01 05:52:00,62.0,58.0,29.93,NE,36,1.0,5.0,88,0.00,,,0.15,,2013-07-01 10:52:00,
2013-07-01 06:02:00,62.0,58.0,29.93,NNE,29,2.0,4.0,88,0.00,,,0.15,,2013-07-01 11:02:00,
2013-07-01 06:11:00,62.0,58.0,29.93,NNE,29,2.0,4.0,88,0.00,,,0.15,,2013-07-01 11:11:00,
2013-07-01 06:22:00,62.0,58.0,29.93,NE,52,2.0,5.0,86,0.00,,,0.15,,2013-07-01 11:22:00,
2013-07-01 06:33:00,61.0,56.0,29.93,NNE,18,3.0,5.0,84,0.00,,,0.15,,2013-07-01 11:33:00,
2013-07-01 06:43:00,61.0,56.0,29.93,NNE,18,3.0,5.0,84,0.00,,,0.15,,2013-07-01 11:43:00,
2013-07-01 06:52:00,62.0,55.0,29.93,NNE,26,3.0,7.0,79,0.00,,,0.15,,2013-07-01 11:52:00,
2013-07-01 07:01:00,62.0,54.0,29.93,NE,34,3.0,8.0,74,0.00,,,0.15,,2013-07-01 12:01:00,
2013-07-01 07:11:00,62.0,54.0,29.93,NE,34,3.0,8.0,74,0.00,,,0.15,,2013-07-01 12:11:00,
2013-07-01 07:22:00,62.0,52.0,29.94,NNE,29,3.0,7.0,70,0.00,,,0.04,,2013-07-01 12:22:00,
2013-07-01 07:33:00,62.0,52.0,29.94,NNE,19,2.0,7.0,70,0.00,,,0.04,,2013-07-01 12:33:00,
2013-07-01 07:43:00,62.0,52.0,29.94,NNE,19,2.0,7.0,70,0.00,,,0.04,,2013-07-01 12:43:00,
2013-07-01 07:53:00,63.0,52.0,29.95,NNE,23,2.0,6.0,67,0.00,,,0.04,,2013-07-01 12:53:00,
2013-07-01 08:02:00,64.0,50.0,29.95,NNE,33,5.0,9.0,61,0.00,,,0.04,,2013-07-01 13:02:00,
2013-07-01 08:12:00,64.0,50.0,29.95,NNE,33,5.0,9.0,61,0.00,,,0.04,,2013-07-01 13:12:00,
2013-07-01 08:23:00,64.0,50.0,29.95,NNE,24,5.0,10.0,61,0.00,,,0.04,,2013-07-01 13:23:00,
2013-07-01 08:33:00,65.0,51.0,29.95,North,11,6.0,10.0,60,0.00,,,0.04,,2013-07-01 13:33:00,
2013-07-01 08:43:00,65.0,51.0,29.95,North,11,6.0,10.0,60,0.00,,,0.04,,2013-07-01 13:43:00,
2013-07-01 08:53:00,65.0,51.0,29.96,NNE,24,6.0,14.0,60,0.00,,,0.04,,2013-07-01 13:53:00,
2013-07-01 09:01:00,66.0,52.0,29.96,North,355,5.0,10.0,61,0.00,,,0.04,,2013-07-01 14:01:00,
2013-07-01 09:11:00,66.0,52.0,29.96,North,355,5.0,10.0,61,0.00,,,0.04,,2013-07-01 14:11:00,
2013-07-01 09:22:00,67.0,54.0,29.96,NNE,18,4.0,8.0,62,0.00,,,0.04,,2013-07-01 14:22:00,
2013-07-01 09:34:00,68.0,54.0,29.96,NNE,23,4.0,12.0,62,0.00,,,0.04,,2013-07-01 14:34:00,
2013-07-01 09:43:00,68.0,54.0,29.96,NNE,23,4.0,12.0,62,0.00,,,0.04,,2013-07-01 14:43:00,
2013-07-01 09:53:00,68.0,54.0,29.96,NNW,333,6.0,12.0,62,0.00,,,0.04,,2013-07-01 14:53:00,
2013-07-01 10:02:00,69.0,55.0,29.96,NNE,13,5.0,10.0,62,0.00,,,0.04,,2013-07-01 15:02:00,
2013-07-01 10:11:00,69.0,55.0,29.96,NNE,13,5.0,10.0,62,0.00,,,0.04,,2013-07-01 15:11:00,
2013-07-01 10:23:00,71.0,56.0,29.96,NNE,17,5.0,9.0,60,0.00,,,0.00,,2013-07-01 15:23:00,
2013-07-01 10:34:00,71.0,56.0,29.96,NNE,15,4.0,12.0,60,0.00,,,0.00,,2013-07-01 15:34:00,
2013-07-01 10:43:00,71.0,56.0,29.96,NNE,15,4.0,12.0,60,0.00,,,0.00,,2013-07-01 15:43:00,
2013-07-01 10:53:00,72.0,57.0,29.96,NNE,17,6.0,10.0,59,0.00,,,0.00,,2013-07-01 15:53:00,
2013-07-01 11:01:00,72.0,58.0,29.96,NNE,19,6.0,12.0,62,0.00,,,0.00,,2013-07-01 16:01:00,
2013-07-01 11:11:00,72.0,58.0,29.96,NNE,19,6.0,12.0,62,0.00,,,0.00,,2013-07-01 16:11:00,
2013-07-01 11:22:00,73.0,60.0,29.96,NE,36,6.0,11.0,63,0.00,,,0.00,,2013-07-01 16:22:00,
2013-07-01 11:33:00,74.0,60.0,29.95,NE,49,3.0,10.0,62,0.00,,,0.00,,2013-07-01 16:33:00,
2013-07-01 11:44:00,74.0,60.0,29.95,NE,49,3.0,10.0,62,0.00,,,0.00,,2013-07-01 16:44:00,
2013-07-01 11:53:00,75.0,61.0,29.95,North,355,5.0,12.0,62,0.00,,,0.00,,2013-07-01 16:53:00,
2013-07-01 12:02:00,75.0,60.0,29.95,North,355,6.0,11.0,59,0.00,,,0.00,,2013-07-01 17:02:00,
2013-07-01 12:12:00,75.0,60.0,29.95,North,355,6.0,11.0,59,0.00,,,0.00,,2013-07-01 17:12:00,
2013-07-01 12:23:00,75.0,62.0,29.95,NNE,20,5.0,12.0,63,0.00,,,0.00,,2013-07-01 17:23:00,
2013-07-01 12:34:00,75.0,62.0,29.95,NNE,30,5.0,15.0,63,0.00,,,0.00,,2013-07-01 17:34:00,
2013-07-01 12:43:00,75.0,62.0,29.95,NNE,30,5.0,15.0,63,0.00,,,0.00,,2013-07-01 17:43:00,
2013-07-01 12:53:00,75.0,61.0,29.94,NNE,24,5.0,12.0,61,0.00,,,0.00,,2013-07-01 17:53:00,
2013-07-01 13:02:00,76.0,62.0,29.94,NNW,348,5.0,13.0,61,0.00,,,0.00,,2013-07-01 18:02:00,
2013-07-01 13:11:00,76.0,62.0,29.94,NNW,348,5.0,13.0,61,0.00,,,0.00,,2013-07-01 18:11:00,
2013-07-01 13:22:00,76.0,62.0,29.94,NNW,348,5.0,13.0,61,0.00,,,0.00,,2013-07-01 18:22:00,
2013-07-01 13:33:00,76.0,62.0,29.94,North,355,7.0,13.0,63,0.00,,,0.00,,2013-07-01 18:33:00,
2013-07-01 13:43:00,76.0,62.0,29.94,North,355,7.0,13.0,63,0.00,,,0.00,,2013-07-01 18:43:00,
2013-07-01 13:53:00,76.0,62.0,29.93,NNW,346,6.0,15.0,61,0.00,,,0.00,,2013-07-01 18:53:00,
2013-07-01 14:02:00,76.0,61.0,29.93,NE,34,7.0,15.0,60,0.00,,,0.00,,2013-07-01 19:02:00,
2013-07-01 14:11:00,76.0,61.0,29.93,NE,34,7.0,15.0,60,0.00,,,0.00,,2013-07-01 19:11:00,
2013-07-01 14:22:00,75.0,62.0,29.93,NNE,25,6.0,12.0,63,0.00,,,0.00,,2013-07-01 19:22:00,
2013-07-01 14:44:00,75.0,62.0,29.93,NNE,24,6.0,14.0,63,0.00,,,0.00,,2013-07-01 19:44:00,
2013-07-01 14:53:00,76.0,62.0,29.93,North,5,4.0,12.0,63,0.00,,,0.00,,2013-07-01 19:53:00,
2013-07-01 15:02:00,76.0,62.0,29.94,North,360,7.0,14.0,61,0.00,,,0.00,,2013-07-01 20:02:00,
2013-07-01 15:11:00,76.0,62.0,29.94,North,360,7.0,14.0,61,0.00,,,0.00,,2013-07-01 20:11:00,
2013-07-01 15:22:00,75.0,61.0,29.94,NNE,30,7.0,14.0,61,0.00,,,0.00,,2013-07-01 20:22:00,
2013-07-01 15:34:00,74.0,61.0,29.94,NE,35,4.0,10.0,65,0.00,,,0.00,,2013-07-01 20:34:00,
2013-07-01 15:43:00,74.0,61.0,29.94,NE,35,4.0,10.0,65,0.00,,,0.00,,2013-07-01 20:43:00,
2013-07-01 15:52:00,73.0,59.0,29.94,NNE,28,5.0,12.0,62,0.00,,,0.00,,2013-07-01 20:52:00,
2013-07-01 16:02:00,73.0,60.0,29.94,NE,54,5.0,10.0,63,0.00,,,0.00,,2013-07-01 21:02:00,
2013-07-01 16:11:00,73.0,60.0,29.94,NE,54,5.0,10.0,63,0.00,,,0.00,,2013-07-01 21:11:00,
2013-07-01 16:24:00,73.0,60.0,29.93,NE,34,6.0,13.0,63,0.00,,,0.00,,2013-07-01 21:24:00,
2013-07-01 16:34:00,73.0,60.0,29.93,North,360,8.0,13.0,64,0.00,,,0.00,,2013-07-01 21:34:00,
2013-07-01 16:43:00,73.0,60.0,29.93,North,360,8.0,13.0,64,0.00,,,0.00,,2013-07-01 21:43:00,
2013-07-01 16:53:00,73.0,61.0,29.94,NE,36,6.0,11.0,65,0.00,,,0.00,,2013-07-01 21:53:00,
2013-07-01 17:01:00,73.0,61.0,29.94,NNE,26,6.0,12.0,65,0.00,,,0.00,,2013-07-01 22:01:00,
2013-07-01 17:11:00,73.0,61.0,29.94,NNE,26,6.0,12.0,65,0.00,,,0.00,,2013-07-01 22:11:00,
2013-07-01 17:24:00,73.0,61.0,29.94,North,355,7.0,14.0,66,0.00,,,0.00,,2013-07-01 22:24:00,
2013-07-01 17:33:00,73.0,60.0,29.94,North,355,8.0,15.0,64,0.00,,,0.00,,2013-07-01 22:33:00,
2013-07-01 17:43:00,73.0,60.0,29.94,North,355,8.0,15.0,64,0.00,,,0.00,,2013-07-01 22:43:00,
2013-07-01 17:53:00,73.0,61.0,29.94,NE,40,5.0,12.0,66,0.00,,,0.00,,2013-07-01 22:53:00,
2013-07-01 18:01:00,73.0,60.0,29.94,NNW,344,7.0,16.0,64,0.00,,,0.00,,2013-07-01 23:01:00,
2013-07-01 18:11:00,73.0,60.0,29.94,NNW,344,7.0,16.0,64,0.00,,,0.00,,2013-07-01 23:11:00,
2013-07-01 18:22:00,72.0,60.0,29.95,NNW,340,6.0,16.0,67,0.00,,,0.00,,2013-07-01 23:22:00,
2013-07-01 18:33:00,70.0,60.0,29.96,NNE,13,8.0,17.0,71,0.00,,,0.00,,2013-07-01 23:33:00,
2013-07-01 18:44:00,70.0,60.0,29.96,NNE,13,8.0,17.0,71,0.00,,,0.00,,2013-07-01 23:44:00,
2013-07-01 18:53:00,69.0,61.0,29.96,West,263,5.0,15.0,75,0.00,,,0.00,,2013-07-01 23:53:00,
2013-07-01 19:01:00,69.0,60.0,29.96,WNW,299,3.0,11.0,74,0.00,,,0.00,,2013-07-02 00:01:00,
2013-07-01 19:12:00,69.0,60.0,29.96,WNW,299,3.0,11.0,74,0.00,,,0.00,,2013-07-02 00:12:00,
2013-07-01 19:22:00,70.0,61.0,29.97,East,84,4.0,10.0,73,0.00,,,0.00,,2013-07-02 00:22:00,
2013-07-01 19:34:00,70.0,61.0,29.97,WNW,302,2.0,9.0,74,0.00,,,0.00,,2013-07-02 00:34:00,
2013-07-01 19:43:00,70.0,61.0,29.97,WNW,302,2.0,9.0,74,0.00,,,0.00,,2013-07-02 00:43:00,
2013-07-01 19:53:00,70.0,61.0,29.97,NE,35,2.0,9.0,74,0.00,,,0.00,,2013-07-02 00:53:00,
2013-07-01 20:01:00,69.0,60.0,29.97,North,5,3.0,6.0,72,0.00,,,0.00,,2013-07-02 01:01:00,
2013-07-01 20:11:00,69.0,60.0,29.97,North,5,3.0,6.0,72,0.00,,,0.00,,2013-07-02 01:11:00,
2013-07-01 20:22:00,70.0,58.0,29.97,SSE,159,3.0,8.0,66,0.00,,,0.00,,2013-07-02 01:22:00,
2013-07-01 20:33:00,70.0,56.0,29.97,SSW,211,3.0,13.0,61,0.00,,,0.00,,2013-07-02 01:33:00,
2013-07-01 20:43:00,70.0,56.0,29.97,SSW,211,3.0,13.0,61,0.00,,,0.00,,2013-07-02 01:43:00,
2013-07-01 20:53:00,69.0,54.0,29.98,ESE,114,3.0,14.0,58,0.00,,,0.00,,2013-07-02 01:53:00,
2013-07-01 21:02:00,69.0,56.0,29.98,North,360,3.0,9.0,63,0.00,,,0.00,,2013-07-02 02:02:00,
2013-07-01 21:11:00,69.0,56.0,29.98,North,360,3.0,9.0,63,0.00,,,0.00,,2013-07-02 02:11:00,
2013-07-01 21:22:00,66.0,57.0,29.98,NNE,13,1.0,3.0,73,0.01,,,0.01,,2013-07-02 02:22:00,
2013-07-01 21:33:00,65.0,58.0,29.98,NNE,20,0.0,3.0,79,0.01,,,0.01,,2013-07-02 02:33:00,
2013-07-01 21:43:00,65.0,58.0,29.98,NNE,20,0.0,3.0,79,0.01,,,0.01,,2013-07-02 02:43:00,
2013-07-01 21:53:00,64.0,59.0,29.99,ENE,72,0.0,3.0,83,0.01,,,0.01,,2013-07-02 02:53:00,
2013-07-01 22:01:00,65.0,58.0,29.99,East,88,1.0,4.0,78,0.01,,,0.01,,2013-07-02 03:01:00,
2013-07-01 22:12:00,65.0,58.0,29.99,East,88,1.0,4.0,78,0.01,,,0.01,,2013-07-02 03:12:00,
2013-07-01 22:24:00,65.0,59.0,30.00,SSE,159,0.0,3.0,80,0.00,,,0.01,,2013-07-02 03:24:00,
2013-07-01 22:32:00,65.0,58.0,29.99,SE,138,0.0,3.0,77,0.01,,,0.02,,2013-07-02 03:32:00,
2013-07-01 22:43:00,65.0,58.0,29.99,SE,138,0.0,3.0,77,0.01,,,0.02,,2013-07-02 03:43:00,
2013-07-01 22:53:00,64.0,58.0,29.99,NNE,24,1.0,3.0,80,0.01,,,0.02,,2013-07-02 03:53:00,
2013-07-01 23:02:00,64.0,57.0,29.99,NNE,17,2.0,4.0,77,0.01,,,0.02,,2013-07-02 04:02:00,
2013-07-01 23:11:00,64.0,57.0,29.99,NNE,17,2.0,4.0,77,0.01,,,0.02,,2013-07-02 04:11:00,
2013-07-01 23:22:00,64.0,56.0,29.99,NNE,15,2.0,5.0,75,0.01,,,0.02,,2013-07-02 04:22:00,
2013-07-01 23:32:00,64.0,56.0,29.99,NNE,15,2.0,5.0,75,0.01,,,0.02,,2013-07-02 04:32:00,
2013-07-01 23:42:00,64.0,56.0,29.99,NNE,15,2.0,5.0,75,0.01,,,0.02,,2013-07-02 04:42:00,
2013-07-01 23:53:00,64.0,56.0,29.99,NNE,15,2.0,5.0,75,0.01,,,0.02,,2013-07-02 04:53:00,